Time,TemperatureF,DewpointF,PressureIn,WindDirection,WindDirectionDegrees,WindSpeedMPH,WindSpeedGustMPH,Humidity,HourlyPrecipIn,Conditions,Clouds,dailyrainin,SolarRadiationWatts/m^2,SoftwareType,DateUTC
2013-02-03 00:03:00,33.0,33.0,30.12,West,259,3.0,-999.0,100,-99.99,,,0.00,0.000000,,2013-02-03 05:03:00,
2013-02-03 00:12:00,33.0,33.0,30.13,WSW,243,4.0,-999.0,100,-99.99,,,0.00,0.000000,,2013-02-03 05:12:00,
2013-02-03 00:22:00,33.0,33.0,30.13,WSW,241,4.0,-999.0,100,-99.99,,,0.00,0.000000,,2013-02-03 05:22:00,
2013-02-03 00:32:00,33.0,33.0,30.13,WSW,241,4.0,-999.0,100,-99.99,,,0.00,0.000000,,2013-02-03 05:32:00,
2013-02-03 00:42:00,33.0,33.0,30.13,WSW,237,5.0,-999.0,100,-99.99,,,0.00,0.000000,,2013-02-03 05:42:00,
2013-02-03 00:52:00,32.0,32.0,30.13,SW,222,4.0,-999.0,100,-99.99,,,0.00,0.000000,,2013-02-03 05:52:00,
2013-02-03 01:02:00,32.0,32.0,30.13,SW,222,4.0,-999.0,100,-99.99,,,0.00,0.000000,,2013-02-03 06:02:00,
2013-02-03 01:11:00,32.0,32.0,30.12,SW,235,3.0,-999.0,100,-99.99,,,0.00,0.000000,,2013-02-03 06:11:00,
2013-02-03 01:21:00,32.0,32.0,30.12,SW,231,4.0,-999.0,100,-99.99,,,0.00,0.000000,,2013-02-03 06:21:00,
2013-02-03 01:32:00,32.0,32.0,30.12,SW,231,4.0,-999.0,100,-99.99,,,0.00,0.000000,,2013-02-03 06:32:00,
2013-02-03 01:42:00,33.0,33.0,30.12,SW,224,4.0,-999.0,100,-99.99,,,0.00,0.000000,,2013-02-03 06:42:00,
2013-02-03 01:52:00,33.0,33.0,30.12,SW,231,4.0,-999.0,100,-99.99,,,0.00,0.000000,,2013-02-03 06:52:00,
2013-02-03 02:02:00,33.0,33.0,30.12,SW,231,4.0,-999.0,100,-99.99,,,0.00,0.000000,,2013-02-03 07:02:00,
2013-02-03 02:11:00,33.0,33.0,30.11,SW,228,4.0,-999.0,100,-99.99,,,0.00,0.000000,,2013-02-03 07:11:00,
2013-02-03 02:21:00,33.0,33.0,30.11,SW,232,3.0,-999.0,100,-99.99,,,0.00,0.000000,,2013-02-03 07:21:00,
2013-02-03 02:32:00,33.0,33.0,30.11,SW,232,3.0,-999.0,100,-99.99,,,0.00,0.000000,,2013-02-03 07:32:00,
2013-02-03 02:42:00,34.0,34.0,30.11,SW,232,3.0,-999.0,100,-99.99,,,0.00,0.000000,,2013-02-03 07:42:00,
2013-02-03 02:52:00,34.0,34.0,30.11,WSW,239,3.0,-999.0,100,-99.99,,,0.00,0.000000,,2013-02-03 07:52:00,
2013-02-03 03:02:00,34.0,34.0,30.11,WSW,239,3.0,-999.0,100,-99.99,,,0.00,0.000000,,2013-02-03 08:02:00,
2013-02-03 03:11:00,34.0,34.0,30.11,SW,232,4.0,-999.0,100,-99.99,,,0.00,0.000000,,2013-02-03 08:11:00,
2013-02-03 03:22:00,34.0,34.0,30.11,SW,232,4.0,-999.0,99,-99.99,,,0.00,0.000000,,2013-02-03 08:22:00,
2013-02-03 03:32:00,34.0,34.0,30.11,SW,232,4.0,-999.0,99,-99.99,,,0.00,0.000000,,2013-02-03 08:32:00,
2013-02-03 03:42:00,34.0,34.0,30.11,SW,232,4.0,-999.0,99,-99.99,,,0.00,0.000000,,2013-02-03 08:42:00,
2013-02-03 03:52:00,34.0,34.0,30.10,SW,229,3.0,-999.0,100,-99.99,,,0.00,0.000000,,2013-02-03 08:52:00,
2013-02-03 04:03:00,34.0,34.0,30.10,SW,229,3.0,-999.0,100,-99.99,,,0.00,0.000000,,2013-02-03 09:03:00,
2013-02-03 04:11:00,34.0,34.0,30.10,SW,232,3.0,-999.0,100,-99.99,,,0.00,0.000000,,2013-02-03 09:11:00,
2013-02-03 04:22:00,34.0,34.0,30.09,SW,231,4.0,-999.0,100,-99.99,,,0.00,0.000000,,2013-02-03 09:22:00,
2013-02-03 04:32:00,34.0,34.0,30.09,SW,231,4.0,-999.0,100,-99.99,,,0.00,0.000000,,2013-02-03 09:32:00,
2013-02-03 04:42:00,34.0,34.0,30.09,SW,228,3.0,-999.0,99,-99.99,,,0.00,0.000000,,2013-02-03 09:42:00,
2013-02-03 04:52:00,34.0,34.0,30.08,SW,230,4.0,-999.0,99,-99.99,,,0.00,0.000000,,2013-02-03 09:52:00,
2013-02-03 05:01:00,34.0,34.0,30.08,SW,230,4.0,-999.0,99,-99.99,,,0.00,0.000000,,2013-02-03 10:01:00,
2013-02-03 05:11:00,34.0,34.0,30.07,SW,223,3.0,-999.0,99,-99.99,,,0.00,0.000000,,2013-02-03 10:11:00,
2013-02-03 05:21:00,34.0,34.0,30.06,SW,231,3.0,-999.0,99,-99.99,,,0.00,0.000000,,2013-02-03 10:21:00,
2013-02-03 05:32:00,34.0,34.0,30.06,SW,231,3.0,-999.0,99,-99.99,,,0.00,0.000000,,2013-02-03 10:32:00,
2013-02-03 05:42:00,34.0,34.0,30.06,SW,226,3.0,-999.0,99,-99.99,,,0.00,0.000000,,2013-02-03 10:42:00,
2013-02-03 05:53:00,34.0,34.0,30.05,SW,227,3.0,-999.0,99,-99.99,,,0.00,0.000000,,2013-02-03 10:53:00,
2013-02-03 06:02:00,34.0,34.0,30.05,SW,227,3.0,-999.0,99,-99.99,,,0.00,0.000000,,2013-02-03 11:02:00,
2013-02-03 06:11:00,34.0,34.0,30.05,SW,235,4.0,-999.0,99,-99.99,,,0.00,0.000000,,2013-02-03 11:11:00,
2013-02-03 06:22:00,34.0,34.0,30.03,SW,222,3.0,-999.0,99,-99.99,,,0.00,0.000000,,2013-02-03 11:22:00,
2013-02-03 06:32:00,34.0,34.0,30.03,SW,222,3.0,-999.0,99,-99.99,,,0.00,0.000000,,2013-02-03 11:32:00,
2013-02-03 06:42:00,34.0,34.0,30.02,SW,217,4.0,-999.0,99,-99.99,,,0.00,0.000000,,2013-02-03 11:42:00,
2013-02-03 06:52:00,34.0,34.0,30.02,SW,231,5.0,-999.0,99,-99.99,,,0.00,0.000000,,2013-02-03 11:52:00,
2013-02-03 07:02:00,34.0,34.0,30.02,SW,231,5.0,-999.0,99,-99.99,,,0.00,0.000000,,2013-02-03 12:02:00,
2013-02-03 07:12:00,34.0,34.0,30.02,WSW,242,4.0,-999.0,99,-99.99,,,0.00,0.000000,,2013-02-03 12:12:00,
2013-02-03 07:22:00,34.0,34.0,30.03,West,266,5.0,-999.0,99,-99.99,,,0.00,0.000000,,2013-02-03 12:22:00,
2013-02-03 07:32:00,34.0,34.0,30.03,West,266,5.0,-999.0,99,-99.99,,,0.00,0.000000,,2013-02-03 12:32:00,
2013-02-03 07:42:00,32.0,32.0,30.05,West,260,5.0,-999.0,99,-99.99,,,0.00,0.000000,,2013-02-03 12:42:00,
2013-02-03 07:53:00,32.0,32.0,30.05,SW,230,4.0,-999.0,100,-99.99,,,0.00,0.000000,,2013-02-03 12:53:00,
2013-02-03 08:03:00,32.0,32.0,30.05,SW,230,4.0,-999.0,100,-99.99,,,0.00,0.000000,,2013-02-03 13:03:00,
2013-02-03 08:12:00,32.0,32.0,30.03,SW,219,4.0,-999.0,100,-99.99,,,0.00,0.000000,,2013-02-03 13:12:00,
2013-02-03 08:22:00,32.0,32.0,30.03,SW,225,5.0,-999.0,100,-99.99,,,0.00,0.000000,,2013-02-03 13:22:00,
2013-02-03 08:32:00,32.0,32.0,30.03,SW,225,5.0,-999.0,100,-99.99,,,0.00,0.000000,,2013-02-03 13:32:00,
2013-02-03 08:42:00,32.0,32.0,30.05,SW,230,5.0,-999.0,100,-99.99,,,0.00,0.000000,,2013-02-03 13:42:00,
2013-02-03 08:52:00,32.0,32.0,30.03,SW,222,5.0,-999.0,100,-99.99,,,0.00,0.000000,,2013-02-03 13:52:00,
2013-02-03 09:03:00,32.0,32.0,30.03,SW,222,5.0,-999.0,100,-99.99,,,0.00,0.000000,,2013-02-03 14:03:00,
2013-02-03 09:12:00,32.0,32.0,30.03,SW,230,6.0,-999.0,100,-99.99,,,0.00,0.000000,,2013-02-03 14:12:00,
2013-02-03 09:22:00,32.0,32.0,30.03,SW,229,4.0,-999.0,100,-99.99,,,0.00,13.960000,,2013-02-03 14:22:00,
2013-02-03 09:32:00,32.0,32.0,30.03,SW,229,4.0,-999.0,100,-99.99,,,0.00,13.960000,,2013-02-03 14:32:00,
2013-02-03 09:42:00,32.0,32.0,30.02,SW,225,4.0,-999.0,100,-99.99,,,0.00,20.930000,,2013-02-03 14:42:00,
2013-02-03 09:52:00,33.0,33.0,30.02,SW,230,5.0,-999.0,100,-99.99,,,0.00,48.849998,,2013-02-03 14:52:00,
2013-02-03 10:03:00,33.0,33.0,30.02,SW,230,5.0,-999.0,100,-99.99,,,0.00,48.849998,,2013-02-03 15:03:00,
2013-02-03 10:12:00,33.0,33.0,30.02,WSW,240,5.0,-999.0,100,-99.99,,,0.00,69.779999,,2013-02-03 15:12:00,
2013-02-03 10:23:00,33.0,33.0,30.02,WSW,247,4.0,-999.0,100,-99.99,,,0.00,69.779999,,2013-02-03 15:23:00,
2013-02-03 10:33:00,33.0,33.0,30.02,WSW,247,4.0,-999.0,100,-99.99,,,0.00,69.779999,,2013-02-03 15:33:00,
2013-02-03 10:42:00,33.0,33.0,30.02,WSW,238,5.0,-999.0,100,-99.99,,,-99.99,83.739998,,2013-02-03 15:42:00,
2013-02-03 10:52:00,33.0,33.0,30.02,WSW,237,4.0,-999.0,100,-99.99,,,0.00,62.799999,,2013-02-03 15:52:00,
2013-02-03 11:03:00,33.0,33.0,30.02,WSW,237,4.0,-999.0,100,-99.99,,,0.00,62.799999,,2013-02-03 16:03:00,
2013-02-03 11:11:00,34.0,34.0,30.02,WSW,237,4.0,-999.0,100,-99.99,,,0.00,97.690002,,2013-02-03 16:11:00,
2013-02-03 11:22:00,34.0,34.0,30.03,WSW,245,5.0,-999.0,100,-99.99,,,0.00,111.650002,,2013-02-03 16:22:00,
2013-02-03 11:33:00,34.0,34.0,30.03,WSW,245,5.0,-999.0,100,-99.99,,,0.00,111.650002,,2013-02-03 16:33:00,
2013-02-03 11:42:00,34.0,34.0,30.03,WSW,255,5.0,-999.0,100,-99.99,,,0.00,146.539993,,2013-02-03 16:42:00,
2013-02-03 11:52:00,35.0,35.0,30.03,WSW,254,5.0,-999.0,100,-99.99,,,-99.99,174.449997,,2013-02-03 16:52:00,
2013-02-03 12:03:00,35.0,35.0,30.03,WSW,254,5.0,-999.0,100,-99.99,,,-99.99,174.449997,,2013-02-03 17:03:00,
2013-02-03 12:12:00,35.0,35.0,30.03,WSW,248,5.0,-999.0,100,-99.99,,,0.00,174.449997,,2013-02-03 17:12:00,
2013-02-03 12:22:00,36.0,36.0,30.03,WSW,237,5.0,-999.0,100,-99.99,,,0.00,307.029999,,2013-02-03 17:22:00,
2013-02-03 12:32:00,36.0,36.0,30.03,WSW,237,5.0,-999.0,100,-99.99,,,0.00,307.029999,,2013-02-03 17:32:00,
2013-02-03 12:42:00,37.0,37.0,30.03,WSW,237,5.0,-999.0,100,-99.99,,,0.00,432.640015,,2013-02-03 17:42:00,
2013-02-03 12:52:00,38.0,38.0,30.02,WSW,244,6.0,-999.0,100,-99.99,,,0.00,327.970001,,2013-02-03 17:52:00,
2013-02-03 13:03:00,38.0,38.0,30.02,WSW,244,6.0,-999.0,100,-99.99,,,0.00,327.970001,,2013-02-03 18:03:00,
2013-02-03 13:12:00,39.0,39.0,30.02,WSW,240,6.0,-999.0,99,-99.99,,,0.00,202.360001,,2013-02-03 18:12:00,
2013-02-03 13:23:00,39.0,39.0,30.03,WSW,251,5.0,-999.0,99,-99.99,,,0.00,118.629997,,2013-02-03 18:23:00,
2013-02-03 13:33:00,39.0,39.0,30.03,WSW,251,5.0,-999.0,99,-99.99,,,0.00,118.629997,,2013-02-03 18:33:00,
2013-02-03 13:42:00,39.0,38.0,30.03,SW,236,5.0,-999.0,97,-99.99,,,0.00,174.449997,,2013-02-03 18:42:00,
2013-02-03 13:52:00,39.0,36.0,30.03,WSW,237,5.0,-999.0,89,-99.99,,,-99.99,209.339996,,2013-02-03 18:52:00,
2013-02-03 14:03:00,39.0,36.0,30.03,WSW,237,5.0,-999.0,89,-99.99,,,-99.99,209.339996,,2013-02-03 19:03:00,
2013-02-03 14:11:00,40.0,36.0,30.05,SW,236,6.0,-999.0,85,-99.99,,,0.00,244.229996,,2013-02-03 19:11:00,
2013-02-03 14:22:00,40.0,35.0,30.05,WSW,239,5.0,-999.0,81,-99.99,,,0.00,181.429993,,2013-02-03 19:22:00,
2013-02-03 14:32:00,40.0,35.0,30.05,WSW,239,5.0,-999.0,81,-99.99,,,0.00,181.429993,,2013-02-03 19:32:00,
2013-02-03 14:42:00,41.0,35.0,30.03,WSW,246,6.0,-999.0,79,-99.99,,,-99.99,530.330017,,2013-02-03 19:42:00,
2013-02-03 14:52:00,41.0,33.0,30.02,WSW,240,8.0,-999.0,72,-99.99,,,0.00,369.829987,,2013-02-03 19:52:00,
2013-02-03 15:02:00,41.0,33.0,30.02,WSW,240,8.0,-999.0,72,-99.99,,,0.00,369.829987,,2013-02-03 20:02:00,
2013-02-03 15:12:00,41.0,33.0,30.03,West,262,5.0,-999.0,72,-99.99,,,0.00,153.520004,,2013-02-03 20:12:00,
2013-02-03 15:22:00,41.0,33.0,30.03,SW,233,5.0,-999.0,72,-99.99,,,0.00,146.539993,,2013-02-03 20:22:00,
2013-02-03 15:33:00,41.0,33.0,30.03,SW,233,5.0,-999.0,72,-99.99,,,0.00,146.539993,,2013-02-03 20:33:00,
2013-02-03 15:42:00,41.0,33.0,30.03,WSW,240,7.0,-999.0,72,-99.99,,,0.00,320.989990,,2013-02-03 20:42:00,
2013-02-03 15:52:00,43.0,33.0,30.03,WSW,252,8.0,-999.0,67,-99.99,,,0.00,460.549988,,2013-02-03 20:52:00,
2013-02-03 16:03:00,43.0,33.0,30.03,WSW,252,8.0,-999.0,67,-99.99,,,0.00,460.549988,,2013-02-03 21:03:00,
2013-02-03 16:11:00,42.0,32.0,30.05,WSW,254,5.0,-999.0,67,-99.99,,,0.00,132.580002,,2013-02-03 21:11:00,
2013-02-03 16:22:00,41.0,31.0,30.06,WSW,239,5.0,-999.0,66,-99.99,,,0.00,195.380005,,2013-02-03 21:22:00,
2013-02-03 16:33:00,41.0,31.0,30.06,WSW,239,5.0,-999.0,66,-99.99,,,0.00,195.380005,,2013-02-03 21:33:00,
2013-02-03 16:42:00,42.0,30.0,30.06,West,263,4.0,-999.0,62,-99.99,,,0.00,300.049988,,2013-02-03 21:42:00,
2013-02-03 16:52:00,41.0,29.0,30.07,South,190,4.0,-999.0,62,-99.99,,,0.00,153.520004,,2013-02-03 21:52:00,
2013-02-03 17:02:00,41.0,29.0,30.07,South,190,4.0,-999.0,62,-99.99,,,0.00,153.520004,,2013-02-03 22:02:00,
2013-02-03 17:11:00,41.0,29.0,30.08,South,171,4.0,-999.0,63,-99.99,,,0.00,153.520004,,2013-02-03 22:11:00,
2013-02-03 17:21:00,40.0,28.0,30.09,WSW,240,5.0,-999.0,62,-99.99,,,0.00,265.160004,,2013-02-03 22:21:00,
2013-02-03 17:32:00,40.0,28.0,30.09,WSW,240,5.0,-999.0,62,-99.99,,,0.00,265.160004,,2013-02-03 22:32:00,
2013-02-03 17:42:00,40.0,27.0,30.10,WSW,248,4.0,-999.0,59,-99.99,,,0.00,188.410004,,2013-02-03 22:42:00,
2013-02-03 17:52:00,39.0,27.0,30.10,SSW,212,3.0,-999.0,61,-99.99,,,0.00,83.739998,,2013-02-03 22:52:00,
2013-02-03 18:02:00,39.0,27.0,30.10,SSW,212,3.0,-999.0,61,-99.99,,,0.00,83.739998,,2013-02-03 23:02:00,
2013-02-03 18:12:00,39.0,27.0,30.11,SW,230,3.0,-999.0,63,-99.99,,,0.00,90.709999,,2013-02-03 23:12:00,
2013-02-03 18:22:00,38.0,28.0,30.11,SSW,204,3.0,-999.0,66,-99.99,,,0.00,48.849998,,2013-02-03 23:22:00,
2013-02-03 18:32:00,38.0,28.0,30.11,SSW,204,3.0,-999.0,66,-99.99,,,0.00,48.849998,,2013-02-03 23:32:00,
2013-02-03 18:42:00,37.0,28.0,30.11,SW,224,4.0,-999.0,70,-99.99,,,0.00,6.980000,,2013-02-03 23:42:00,
2013-02-03 18:52:00,36.0,29.0,30.13,WSW,241,4.0,-999.0,74,-99.99,,,0.00,0.000000,,2013-02-03 23:52:00,
2013-02-03 19:02:00,36.0,29.0,30.13,WSW,241,4.0,-999.0,74,-99.99,,,0.00,0.000000,,2013-02-04 00:02:00,
2013-02-03 19:11:00,36.0,30.0,30.13,WSW,237,3.0,-999.0,78,-99.99,,,0.00,0.000000,,2013-02-04 00:11:00,
2013-02-03 19:22:00,36.0,30.0,30.13,SW,235,5.0,-999.0,79,-99.99,,,0.00,0.000000,,2013-02-04 00:22:00,
2013-02-03 19:32:00,36.0,30.0,30.13,SW,235,5.0,-999.0,79,-99.99,,,0.00,0.000000,,2013-02-04 00:32:00,
2013-02-03 19:42:00,35.0,29.0,30.14,SW,225,4.0,-999.0,79,-99.99,,,0.00,0.000000,,2013-02-04 00:42:00,
2013-02-03 19:52:00,35.0,30.0,30.15,SSW,209,2.0,-999.0,81,-99.99,,,0.00,0.000000,,2013-02-04 00:52:00,
2013-02-03 20:01:00,35.0,30.0,30.15,SSW,209,2.0,-999.0,81,-99.99,,,0.00,0.000000,,2013-02-04 01:01:00,
2013-02-03 20:11:00,35.0,29.0,30.16,SW,217,3.0,-999.0,80,-99.99,,,0.00,0.000000,,2013-02-04 01:11:00,
2013-02-03 20:21:00,34.0,29.0,30.16,WSW,244,2.0,-999.0,80,-99.99,,,0.00,0.000000,,2013-02-04 01:21:00,
2013-02-03 20:32:00,34.0,29.0,30.16,WSW,244,2.0,-999.0,80,-99.99,,,0.00,0.000000,,2013-02-04 01:32:00,
2013-02-03 20:42:00,34.0,30.0,30.17,SSE,167,0.0,-999.0,85,-99.99,,,0.00,0.000000,,2013-02-04 01:42:00,
2013-02-03 20:52:00,34.0,31.0,30.17,SW,236,1.0,-999.0,89,-99.99,,,0.00,0.000000,,2013-02-04 01:52:00,
2013-02-03 21:02:00,34.0,31.0,30.17,SW,236,1.0,-999.0,89,-99.99,,,0.00,0.000000,,2013-02-04 02:02:00,
2013-02-03 21:11:00,34.0,32.0,30.18,WNW,289,1.0,-999.0,93,-99.99,,,0.00,0.000000,,2013-02-04 02:11:00,
2013-02-03 21:21:00,34.0,31.0,30.18,WNW,293,3.0,-999.0,89,-99.99,,,0.00,0.000000,,2013-02-04 02:21:00,
2013-02-03 21:32:00,34.0,31.0,30.18,WNW,293,3.0,-999.0,89,-99.99,,,0.00,0.000000,,2013-02-04 02:32:00,
2013-02-03 21:42:00,33.0,30.0,30.18,West,277,1.0,-999.0,90,-99.99,,,0.00,0.000000,,2013-02-04 02:42:00,
2013-02-03 21:52:00,32.0,31.0,30.18,SSE,164,1.0,-999.0,95,-99.99,,,0.00,0.000000,,2013-02-04 02:52:00,
2013-02-03 22:02:00,32.0,31.0,30.18,SSE,164,1.0,-999.0,95,-99.99,,,0.00,0.000000,,2013-02-04 03:02:00,
2013-02-03 22:11:00,32.0,32.0,30.18,NNW,344,1.0,-999.0,96,-99.99,,,0.00,0.000000,,2013-02-04 03:11:00,
2013-02-03 22:21:00,33.0,30.0,30.18,SSW,198,1.0,-999.0,91,-99.99,,,0.00,0.000000,,2013-02-04 03:21:00,
2013-02-03 22:32:00,33.0,30.0,30.18,SSW,198,1.0,-999.0,91,-99.99,,,0.00,0.000000,,2013-02-04 03:32:00,
2013-02-03 22:42:00,32.0,31.0,30.18,ENE,76,0.0,-999.0,96,-99.99,,,0.00,0.000000,,2013-02-04 03:42:00,
2013-02-03 22:52:00,32.0,31.0,30.19,WNW,302,1.0,-999.0,96,-99.99,,,0.00,0.000000,,2013-02-04 03:52:00,
2013-02-03 23:02:00,32.0,31.0,30.19,WNW,302,1.0,-999.0,96,-99.99,,,0.00,0.000000,,2013-02-04 04:02:00,
2013-02-03 23:11:00,31.0,30.0,30.19,South,183,0.0,-999.0,96,-99.99,,,0.00,0.000000,,2013-02-04 04:11:00,
2013-02-03 23:22:00,32.0,31.0,30.19,South,181,0.0,-999.0,98,-99.99,,,0.00,0.000000,,2013-02-04 04:22:00,
2013-02-03 23:32:00,32.0,31.0,30.19,South,181,0.0,-999.0,98,-99.99,,,0.00,0.000000,,2013-02-04 04:32:00,
2013-02-03 23:42:00,31.0,31.0,30.19,NNE,29,0.0,-999.0,98,-99.99,,,0.00,0.000000,,2013-02-04 04:42:00,
2013-02-03 23:52:00,31.0,31.0,30.19,SSE,157,0.0,-999.0,98,-99.99,,,0.00,0.000000,,2013-02-04 04:52:00,